Miscellaneous Local Product
Issued by NWS Hastings, NE

Home | Current Version | Previous Version | Graphics & Text | Print | Product List | Glossary On
Versions: 1 2 3 4 5 6 7 8 9 10 11 12 13 14 15 16 17 18 19 20 21 22 23 24 25 26 27 28 29 30 31 32 33 34 35 36 37 38 39 40 41 42 43 44 45 46 47 48 49 50
467
AXUS43 KGID 251402
MISGRI

GID CWA HOURLY WEATHER ROUNDUP
NATIONAL WEATHER SERVICE HASTINGS NE
900 AM CDT SAT MAR 25 2017

NOTE: "FAIR" INDICATES FEW OR NO CLOUDS BELOW 12,000 FEET WITH NO
SIGNIFICANT WEATHER AND/OR OBSTRUCTIONS TO VISIBILITY.

...SOUTH CENTRAL NEBRASKA...

CITY           SKY/WX    TMP DP  RH WIND       PRES   REMARKS
GRAND ISLAND   FOG       35  35 100 N15G24    30.03F VSB 3/4 WCI  25
HASTINGS       CLOUDY    36  35  96 N18       30.02S FOG     WCI  26
KEARNEY        CLOUDY    36  32  87 N20       30.04R WCI  25
ORD            FOG       35  33  92 N12       30.05S VSB 1/2 WCI  27
YORK           LGT RAIN  37  37 100 N20G30    30.01S WCI  27
AURORA         DRIZZLE   36  35  98 N18G26    30.01S WCI  25
LEXINGTON      FOG       35  33  94 N10       30.05S VSB 1   WCI  27
HOLDREGE       CLOUDY    37  35  95 N14       30.02S FOG     WCI  28
HEBRON         CLOUDY    38  36  90 N15G21    29.99R WCI  30

...NEBRASKA PANHANDLE...

CITY           SKY/WX    TMP DP  RH WIND       PRES   REMARKS
CHADRON        CLOUDY    46  31  55 S13       29.98S
ALLIANCE       CLOUDY    33  30  88 SE8       30.02F WCI  26
SCOTTSBLUFF    CLOUDY    34  29  82 E12       30.03R WCI  25
SIDNEY         CLOUDY    31  28  89 SW6       30.05S WCI  25

...WESTERN AND NORTH CENTRAL NEBRASKA...

CITY           SKY/WX    TMP DP  RH WIND       PRES   REMARKS
VALENTINE      FOG       27  25  92 CALM      30.07R VSB<1/4
AINSWORTH      FOG       29  29 100 SE3       30.09R VSB 1/4
ONEILL         LGT RAIN  34  34 100 N9        30.08F VSB<1/4 WCI  27
BROKEN BOW     FOG       33  33 100 N13       30.05S VSB 1/2 WCI  24
IMPERIAL       CLOUDY    34  29  82 CALM      30.07R
NORTH PLATTE   SUNNY     33  29  85 NW6       30.07R WCI  28
MCCOOK         SUNNY     37  33  85 NW7       30.05R WCI  32

...EASTERN NEBRASKA...

CITY           SKY/WX    TMP DP  RH WIND       PRES   REMARKS
NORFOLK        CLOUDY    35  33  92 N15       30.05S FOG     WCI  25
SO SIOUX CITY  CLOUDY    38  37  97 N8        30.07S FOG     WCI  32
TEKAMAH        LGT RAIN  39  37  92 N16       30.03R FOG     WCI  30
COLUMBUS       CLOUDY    36  34  93 N12       30.04S WCI  27
ALBION         CLOUDY    36  34  92 N10       30.06S FOG     WCI  28
OMAHA EPPLEY   LGT RAIN  41  36  82 N17       29.98S
OFFUTT AFB     RAIN      41  38  89 N13       29.97S
MILLARD        LGT RAIN  41  40  95 N6        29.99S
LINCOLN        LGT RAIN  40  38  93 N15       30.01R FOG     WCI  32
NEBRASKA CITY  LGT RAIN  40  40 100 N18G24    29.94R WCI  30
BEATRICE       CLOUDY    40  39  97 N18G26    29.96R FOG     WCI  31
FALLS CITY     LGT RAIN  43  41  93 N15G21    29.90R

...NORTHERN KANSAS...

CITY           SKY/WX    TMP DP  RH WIND       PRES   REMARKS
GOODLAND       SUNNY     36  32  85 NW8       30.06R WCI  30
HILL CITY      CLOUDY    39  37  92 N10       30.04R FOG     WCI  32
NORTON         CLOUDY    36  32  87 N12       30.03R WCI  27
PHILLIPSBURG   CLOUDY    39  39 100 N14       30.02S WCI  31
HAYS             N/A     42  39  89 N16       30.00R
RUSSELL        CLOUDY    41  39  93 N17       29.98R
CONCORDIA      CLOUDY    39  37  92 N17G24    29.96S WCI  30
SALINA         CLOUDY    43  40  89 N21G26    29.95S
TOPEKA         HVY RAIN  44  44 100 NW8       29.86R FOG



USA.gov is the U.S. government's official web portal to all federal, state and local government web resources and services.